Skip Page Navigation
NASA JPL Caltech
NASA Logo - Jet Propulsion Laboratory + View the NASA Portal
+ Center for Near-Earth Object Studies
JPL Home Earth Solar System Stars & Galaxies Technology
JPL Solar System Dynamics
BODIES ORBITS EPHEMERIDES TOOLS PHYSICAL DATA DISCOVERY FAQ SITE MAP
IMPORTANT: The SSD Announcement email list is now available. Major changes are coming in the near future, including possible hostname and/or URL changes. To be notified of such changes, subscribe to this email list.

Please visit this page for more details.


JPL Small-Body Database Browser
Search: [ help ]  
470593 (2008 LP17)
Classification: TransNeptunian Object          SPK-ID: 2470593
Ephemeris | Orbit Diagram | Orbital Elements | Physical Parameters | Discovery Circumstances ]

[ show orbit diagram ]
Orbital Elements at Epoch 2458600.5 (2019-Apr-27.0) TDB
Reference: JPL 9 (heliocentric ecliptic J2000)
 Element Value Uncertainty (1-sigma)   Units 
e .6740150479331363 4.0749e-05  
a 91.60087363335902 0.012205 au
q 29.86050640065338 0.00025363 au
i 14.08205443311079 0.00014027 deg
node 72.47717689782131 0.00014858 deg
peri 164.7680644670986 0.0016896 deg
M 2.223042652909683 0.00042406 deg
tp 2456623.106304545571
(2013-Nov-26.60630455)
0.21627 TDB
period 320219.5555860599
876.71
63.999
0.1752
d
yr
n .001124228654121809 2.2469e-07 deg/d
Q 153.3412408660647 0.020431 au
  Orbit Determination Parameters
   # obs. used (total)      102  
   data-arc span      5553 days (15.20 yr)  
   first obs. used      2000-05-05  
   last obs. used      2015-07-19  
   planetary ephem.      DE431  
   SB-pert. ephem.      SB431-N16  
   condition code      2  
   norm. resid. RMS      .32348  
   source      ORB  
   producer      Otto Matic  
   solution date      2017-Apr-09 07:30:44  

Additional Information
 Earth MOID = 28.8508 au 
 Jupiter MOID = 24.4839 au 
 T_jup = 6.069 
[ show covariance matrix ]

Ephemeris | Orbit Diagram | Orbital Elements | Physical Parameters | Discovery Circumstances ]

Physical Parameter Table
Parameter Symbol Value Units Sigma Reference Notes
absolute magnitude H 6.2   n/a MPO383182  

470593 (2008 LP17)          Discovered 2008-Jun-06 by Palomar at Palomar
Reference: Last Updated: 2016-08-22
Ephemeris | Orbit Diagram | Orbital Elements | Physical Parameters | Discovery Circumstances ]
ABOUT SSD CREDITS/AWARDS PRIVACY/COPYRIGHT GLOSSARY LINKS
FirstGov
(server date/time)  
NASA Home Page
Site Manager:   Ryan S. Park
Webmaster  Alan B. Chamberlin